#timestamp,LO_Frequency,Hit,StdDev 
1590152415.3,286047002.3,N
1590152435.2,286047000.6,N
1590152455.0,286046999.5,N
1590152455.9,286046999.5,N
1590152475.7,286046999.6,N
1590152495.6,286046998.7,N
1590152515.4,286046995.3,Y
1590152535.3,286046995.3,P
1590152555.1,286046995.1,N
1590152575.8,286046995.8,N
1590152595.7,286046992.5,Y
1590152615.5,286046997.5,P
1590152635.4,286046996.9,P
1590152655.2,286046997.0,P
1590152675.0,286046999.0,Y
1590152675.9,286046999.0,P
1590152695.8,286047001.9,N
1590152715.6,286047000.2,N
1590152735.5,286046999.9,N
1590152755.3,286047000.0,N
1590152775.1,286047002.1,N
1590152795.9,286047002.2,N
1590152815.7,286047001.5,N
1590152835.5,286047001.9,N
1590152855.4,286047002.2,N
1590152875.2,286047002.8,N
1590152895.1,286047000.7,N
1590152896.0,286047000.7,N
1590152915.8,286046999.8,N
1590152935.6,286046999.9,N
1590152955.5,286047000.4,N
1590152975.3,286047000.9,N
1590152995.2,286047001.0,N
1590153015.9,286047000.5,N
1590153035.7,286046998.3,N
1590153055.6,286046998.4,N
1590153075.4,286046996.8,N
1590153095.2,286046993.7,Y
1590153115.1,286046995.9,P
1590153116.0,286046995.9,N
1590153135.8,286046996.3,N
1590153155.7,286046993.5,Y
1590153175.5,286046997.1,P
1590153195.3,286046996.8,P
1590153215.2,286046999.4,P
1590153235.0,286046999.3,N
1590153235.9,286046999.3,N
1590153255.8,286046998.9,N
1590153275.6,286046999.4,N
1590153295.4,286046995.2,Y
1590153315.3,286046997.2,P
1590153335.1,286046999.3,N
1590153355.9,286046999.3,N
1590153375.7,286046999.1,N
1590153395.5,286046996.6,Y
1590153415.4,286046998.7,P
1590153435.2,286046998.7,P
1590153455.1,286046999.0,P
1590153456.0,286046999.0,Y
1590153475.8,286046996.9,P
1590153495.6,286046998.4,N
1590153515.5,286047000.8,N
1590153535.3,286046998.2,N
1590153555.1,286046999.0,N
1590153575.9,286046998.3,N
1590153595.7,286046999.3,N
1590153615.6,286046999.5,N
1590153635.4,286046996.5,Y
1590153655.2,286046998.7,P
1590153675.1,286046998.9,P
1590153676.0,286046998.9,P
1590153695.8,286047001.0,Y
1590153715.7,286046999.8,P
1590153735.5,286047004.0,P
1590153755.3,286047001.3,N
1590153775.2,286047001.9,N
1590153795.0,286047002.7,N
1590153795.9,286047002.7,N
1590153815.8,286046999.7,N
1590153835.6,286047002.8,N
1590153855.4,286047002.0,N
1590153875.3,286047002.1,N
1590153895.1,286047001.7,N
1590153915.8,286047001.5,N
1590153935.7,286047001.6,N
1590153955.5,286047004.0,N
1590153975.4,286047001.1,N
1590153995.2,286047000.5,N
1590154015.0,286047003.0,N
1590154015.9,286047003.0,N
1590154035.8,286047003.0,N
1590154055.6,286047006.0,Y
1590154075.5,286047002.6,P
1590154095.3,286047000.3,N
1590154115.1,286047000.9,N
1590154135.9,286047000.3,N
1590154155.7,286047002.8,Y
1590154175.6,286046998.5,P
1590154195.4,286047000.6,N
1590154215.2,286046999.8,N
1590154235.1,286047001.1,N
1590154236.0,286047001.1,N
1590154255.8,286047000.2,N
1590154275.6,286046998.2,N
1590154295.5,286046999.6,N
1590154315.3,286046998.6,N
1590154335.2,286046999.0,N
1590154355.0,286046998.6,N
1590154355.9,286046998.6,N
1590154375.7,286047001.2,N
1590154395.6,286047000.9,N
1590154415.4,286046998.4,N
1590154435.3,286047001.1,N
1590154455.1,286047000.9,N
1590154475.8,286047000.2,N
1590154495.7,286047002.3,N
1590154515.5,286047002.2,N
1590154535.4,286047004.3,Y
1590154555.2,286047003.2,P
1590154575.0,286047003.5,N
1590154575.9,286047003.5,N
1590154595.8,286047004.1,N
1590154615.6,286047001.3,N
1590154635.5,286047003.7,N
1590154655.3,286047003.9,N
1590154675.1,286047001.5,N
1590154695.9,286047001.9,N
1590154715.7,286047004.3,Y
1590154735.6,286047000.2,P
1590154755.4,286047002.8,N
1590154775.2,286047002.2,N
1590154795.1,286046999.7,N
1590154796.0,286046999.7,N
1590154815.8,286047000.7,N
1590154835.7,286046998.3,N
1590154855.5,286046998.1,N
1590154875.4,286047000.8,N
1590154895.2,286047002.8,N
1590154915.1,286046999.9,N
1590154916.0,286046999.9,N
1590154935.8,286047001.2,N
1590154955.7,286046998.1,N
1590154975.5,286046998.8,N
1590154995.3,286047000.7,N
1590155015.2,286046998.3,N
1590155035.0,286047000.3,N
1590155035.9,286047000.3,N
1590155055.8,286047001.0,N
1590155075.6,286047000.4,N
1590155095.5,286047000.7,N
1590155115.3,286047000.2,N
1590155135.1,286047001.5,N
1590155155.9,286047001.0,N
1590155175.7,286046998.5,N
1590155195.6,286047002.7,N
1590155215.4,286047002.2,N
1590155235.2,286046998.8,N
1590155255.1,286046998.5,N
1590155256.0,286046998.5,N
1590155275.8,286047001.0,N
1590155295.7,286047000.1,N
1590155315.5,286047000.8,N
1590155335.3,286047002.6,N
1590155355.2,286046999.8,N
1590155375.0,286047000.3,N
1590155375.9,286047000.3,N
1590155395.8,286047002.8,N
1590155415.6,286047000.4,N
1590155435.4,286047002.8,N
1590155455.3,286047002.6,N
1590155475.1,286047002.3,N
1590155495.8,286047001.8,N
1590155515.7,286047001.9,N
1590155535.5,286047002.1,N
1590155555.4,286047004.2,Y
1590155575.2,286047002.3,P
1590155595.0,286047001.8,N
1590155595.9,286047001.8,N
1590155615.8,286047000.4,N
1590155635.6,286047002.8,Y
1590155655.5,286046998.2,P
1590155675.3,286047001.0,N
1590155695.1,286046998.5,N
1590155715.9,286046999.2,N
1590155735.7,286047000.9,N
1590155755.6,286046998.2,N
1590155775.4,286047000.8,N
1590155795.2,286047002.8,N
1590155815.1,286047000.5,N
1590155816.0,286047000.5,N
1590155835.8,286047002.5,N
1590155855.7,286047000.1,N
1590155875.5,286047002.4,N
1590155895.3,286047000.8,N
1590155915.2,286047001.0,N
1590155935.0,286046998.5,N
1590155935.9,286046998.5,N
1590155955.8,286046999.1,N
1590155975.6,286047000.6,N
1590155995.4,286046998.7,N
